TimeAKDT,TemperatureF,Dew PointF,Humidity,Sea Level PressureIn,VisibilityMPH,Wind Direction,Wind SpeedMPH,Gust SpeedMPH,PrecipitationIn,Events,Conditions,WindDirDegrees,DateUTC
12:16 AM,53.6,39.2,58,29.41,10.0,SSE,4.6,-,N/A,,Mostly Cloudy,150,2013-09-25 08:16:00
12:36 AM,53.6,39.2,58,29.40,10.0,ESE,6.9,26.5,N/A,,Mostly Cloudy,120,2013-09-25 08:36:00
12:56 AM,53.6,37.4,54,29.40,10.0,SSE,11.5,25.3,N/A,,Scattered Clouds,150,2013-09-25 08:56:00
1:16 AM,51.8,39.2,62,29.39,10.0,SE,17.3,28.8,N/A,,Scattered Clouds,140,2013-09-25 09:16:00
1:36 AM,53.6,39.2,58,29.37,10.0,SE,17.3,29.9,N/A,,Mostly Cloudy,140,2013-09-25 09:36:00
1:56 AM,53.6,39.2,58,29.36,10.0,SE,23.0,34.5,N/A,,Mostly Cloudy,140,2013-09-25 09:56:00
2:16 AM,51.8,42.8,71,29.33,10.0,SSE,19.6,39.1,N/A,,Overcast,150,2013-09-25 10:16:00
2:36 AM,51.8,42.8,71,29.30,8.0,SSE,21.9,43.7,N/A,,Overcast,150,2013-09-25 10:36:00
2:56 AM,51.8,42.8,71,29.30,9.0,SSE,11.5,38.0,N/A,,Mostly Cloudy,150,2013-09-25 10:56:00
3:16 AM,53.6,41.0,62,29.30,10.0,SSE,8.1,29.9,N/A,,Overcast,150,2013-09-25 11:16:00
3:36 AM,51.8,42.8,71,29.29,10.0,ESE,6.9,-,N/A,,Overcast,120,2013-09-25 11:36:00
3:56 AM,51.8,42.8,71,29.28,10.0,West,9.2,31.1,0.01,,Mostly Cloudy,260,2013-09-25 11:56:00
4:16 AM,51.8,42.8,71,29.27,10.0,Calm,Calm,-,0.01,,Overcast,0,2013-09-25 12:16:00
4:36 AM,51.8,42.8,71,29.26,10.0,NE,3.5,-,0.04,,Mostly Cloudy,40,2013-09-25 12:36:00
4:56 AM,48.2,44.6,87,29.25,8.0,NNE,6.9,-,0.08,,Overcast,30,2013-09-25 12:56:00
5:16 AM,48.2,44.6,87,29.24,9.0,NNE,11.5,17.3,0.03,,Mostly Cloudy,30,2013-09-25 13:16:00
5:36 AM,51.8,42.8,71,29.23,10.0,SE,5.8,19.6,0.04,,Mostly Cloudy,130,2013-09-25 13:36:00
5:56 AM,51.8,44.6,76,29.22,9.0,NW,8.1,-,0.06,,Mostly Cloudy,320,2013-09-25 13:56:00
6:16 AM,48.2,46.4,93,29.22,10.0,North,6.9,17.3,0.03,,Mostly Cloudy,350,2013-09-25 14:16:00
6:36 AM,48.2,44.6,87,29.22,10.0,ENE,10.4,-,0.04,,Overcast,70,2013-09-25 14:36:00
6:56 AM,50.0,44.6,82,29.22,10.0,NE,4.6,-,0.04,,Overcast,40,2013-09-25 14:56:00
7:16 AM,50.0,44.6,82,29.22,10.0,NNE,10.4,-,0.01,,Overcast,20,2013-09-25 15:16:00
7:36 AM,48.2,46.4,93,29.21,10.0,NE,8.1,-,0.01,,Overcast,50,2013-09-25 15:36:00
7:56 AM,48.2,46.4,93,29.21,10.0,ENE,12.7,16.1,0.01,,Overcast,60,2013-09-25 15:56:00
8:16 AM,48.2,46.4,93,29.21,10.0,NE,6.9,-,N/A,,Overcast,50,2013-09-25 16:16:00
8:36 AM,50.0,44.6,82,29.21,10.0,NNW,5.8,-,N/A,,Overcast,340,2013-09-25 16:36:00
8:56 AM,51.8,44.6,76,29.22,10.0,North,4.6,-,N/A,,Overcast,10,2013-09-25 16:56:00
9:16 AM,51.8,44.6,76,29.23,10.0,SE,3.5,18.4,N/A,,Overcast,140,2013-09-25 17:16:00
9:36 AM,51.8,42.8,71,29.24,10.0,North,8.1,-,N/A,,Overcast,360,2013-09-25 17:36:00
9:56 AM,51.8,42.8,71,29.24,10.0,South,5.8,18.4,N/A,,Mostly Cloudy,170,2013-09-25 17:56:00
10:16 AM,51.8,42.8,71,29.25,10.0,ESE,11.5,23.0,N/A,,Overcast,120,2013-09-25 18:16:00
10:36 AM,51.8,42.8,71,29.26,10.0,NNE,4.6,-,N/A,,Overcast,20,2013-09-25 18:36:00
10:56 AM,51.8,42.8,71,29.27,10.0,WNW,4.6,-,N/A,,Overcast,300,2013-09-25 18:56:00
11:16 AM,51.8,44.6,76,29.28,10.0,Calm,Calm,-,N/A,,Overcast,0,2013-09-25 19:16:00
11:36 AM,51.8,42.8,71,29.28,10.0,Calm,Calm,-,N/A,,Overcast,0,2013-09-25 19:36:00
11:56 AM,53.6,42.8,67,29.29,10.0,Calm,Calm,-,N/A,,Overcast,0,2013-09-25 19:56:00
12:16 PM,53.6,42.8,67,29.29,10.0,NE,3.5,-,N/A,,Overcast,40,2013-09-25 20:16:00
12:36 PM,53.6,42.8,67,29.30,10.0,ESE,4.6,-,N/A,,Overcast,120,2013-09-25 20:36:00
12:56 PM,53.6,44.6,72,29.30,10.0,ESE,5.8,18.4,N/A,,Overcast,120,2013-09-25 20:56:00
1:16 PM,53.6,42.8,67,29.31,10.0,NE,9.2,23.0,N/A,,Overcast,40,2013-09-25 21:16:00
1:36 PM,53.6,42.8,67,29.31,10.0,North,6.9,19.6,N/A,,Overcast,10,2013-09-25 21:36:00
1:56 PM,53.6,44.6,72,29.31,10.0,SSE,10.4,21.9,N/A,,Overcast,150,2013-09-25 21:56:00
2:16 PM,53.6,42.8,67,29.31,10.0,East,6.9,18.4,N/A,,Overcast,80,2013-09-25 22:16:00
2:36 PM,53.6,42.8,67,29.32,10.0,NW,5.8,-,N/A,,Mostly Cloudy,320,2013-09-25 22:36:00
2:56 PM,53.6,44.6,72,29.33,10.0,North,8.1,-,N/A,,Overcast,360,2013-09-25 22:56:00
3:16 PM,53.6,44.6,72,29.33,10.0,SW,8.1,-,N/A,,Overcast,220,2013-09-25 23:16:00
3:36 PM,53.6,44.6,72,29.34,10.0,SSW,9.2,-,N/A,,Overcast,210,2013-09-25 23:36:00
3:56 PM,53.6,44.6,72,29.34,10.0,WSW,8.1,-,N/A,,Overcast,240,2013-09-25 23:56:00
4:16 PM,53.6,44.6,72,29.35,10.0,SW,13.8,-,N/A,,Overcast,220,2013-09-26 00:16:00
4:36 PM,53.6,44.6,72,29.37,10.0,WSW,11.5,-,N/A,,Overcast,240,2013-09-26 00:36:00
4:56 PM,51.8,46.4,82,29.39,8.0,WNW,10.4,17.3,0.01,,Mostly Cloudy,290,2013-09-26 00:56:00
5:16 PM,51.8,46.4,82,29.40,10.0,Calm,Calm,-,0.01,,Mostly Cloudy,0,2013-09-26 01:16:00
5:36 PM,51.8,46.4,82,29.41,10.0,WNW,10.4,-,0.01,,Overcast,300,2013-09-26 01:36:00
5:56 PM,51.8,44.6,76,29.41,10.0,WSW,16.1,19.6,0.01,,Overcast,240,2013-09-26 01:56:00
6:16 PM,51.8,44.6,76,29.42,10.0,West,24.2,29.9,N/A,,Overcast,270,2013-09-26 02:16:00
6:36 PM,51.8,44.6,76,29.43,10.0,WNW,18.4,25.3,N/A,,Mostly Cloudy,300,2013-09-26 02:36:00
6:56 PM,51.8,46.4,82,29.45,10.0,West,19.6,27.6,N/A,,Scattered Clouds,280,2013-09-26 02:56:00
7:16 PM,51.8,44.6,76,29.48,10.0,WNW,11.5,25.3,N/A,,Mostly Cloudy,290,2013-09-26 03:16:00
7:36 PM,51.8,42.8,71,29.49,10.0,West,13.8,17.3,N/A,,Mostly Cloudy,280,2013-09-26 03:36:00
7:56 PM,51.8,42.8,71,29.51,10.0,NNW,11.5,-,N/A,,Overcast,330,2013-09-26 03:56:00
8:16 PM,51.8,44.6,76,29.53,10.0,West,20.7,-,N/A,,Overcast,270,2013-09-26 04:16:00
8:36 PM,50.0,46.4,87,29.55,8.0,NW,18.4,-,N/A,,Overcast,310,2013-09-26 04:36:00
8:56 PM,50.0,44.6,82,29.57,10.0,NW,16.1,25.3,N/A,,Overcast,310,2013-09-26 04:56:00
9:16 PM,48.2,44.6,87,29.58,10.0,WNW,15.0,24.2,N/A,,Overcast,300,2013-09-26 05:16:00
9:36 PM,48.2,44.6,87,29.60,10.0,WNW,17.3,33.4,N/A,,Overcast,290,2013-09-26 05:36:00
9:56 PM,48.2,44.6,87,29.62,10.0,WNW,16.1,24.2,N/A,,Overcast,300,2013-09-26 05:56:00
10:16 PM,48.2,44.6,87,29.63,10.0,WNW,19.6,26.5,N/A,,Mostly Cloudy,290,2013-09-26 06:16:00
10:36 PM,48.2,44.6,87,29.66,10.0,NW,18.4,25.3,N/A,,Overcast,310,2013-09-26 06:36:00
10:56 PM,48.2,44.6,87,29.67,9.0,WNW,16.1,25.3,N/A,,Overcast,300,2013-09-26 06:56:00
11:16 PM,48.2,44.6,87,29.68,10.0,West,13.8,20.7,N/A,,Overcast,280,2013-09-26 07:16:00
11:36 PM,50.0,44.6,82,29.69,10.0,WNW,17.3,31.1,N/A,,Overcast,300,2013-09-26 07:36:00
11:56 PM,50.0,44.6,82,29.70,10.0,WNW,19.6,24.2,N/A,,Overcast,290,2013-09-26 07:56:00